EW5526 Weather Reports


Display with metric or nautical units.
time (UTC)temp
F
wind
direction
speed
MPH
gust
MPH
rain 1hr
in
rain 24hr
in
rain mn
in
humidity
%
barometer
mb
20260502163027 60 355 8.0 10.0 0.00 0.00 0.00 62 1020.6
20260502123022 63 328 6.0 14.0 0.00 0.00 0.00 56 1021.5
20260502113022 63 15 9.0 14.0 0.00 0.00 0.00 54 1021.6
20260502110022 64 336 6.0 12.0 0.00 0.00 0.00 51 1021.7
20260502103020 63 296 10.0 11.0 0.00 0.00 0.00 49 1021.9
20260502070046 57 257 5.0 8.0 0.00 0.00 0.00 61 1021.1
20260502063046 56 17 4.0 7.0 0.00 0.00 0.00 63 1020.9
20260502060045 55 324 5.0 12.0 0.00 0.00 0.00 64 1020.7
20260502053045 54 360 9.0 11.0 0.00 0.00 0.00 68 1020.5
20260502050044 53 329 5.0 11.0 0.00 0.00 0.00 71 1020.4
20260502043044 53 269 4.0 8.0 0.00 0.00 0.00 70 1020.4
20260502040044 53 348 3.0 11.0 0.00 0.00 0.00 68 1020.3
20260502033043 53 5 3.0 9.0 0.00 0.00 0.00 66 1020.4
20260502023042 53 5 2.0 6.0 0.00 0.00 0.00 64 1020.7
20260502020041 53 14 4.0 9.0 0.00 0.00 0.00 65 1020.9
20260502013041 54 5 3.0 7.0 0.00 0.00 0.00 65 1021.0
20260502003040 54 319 4.0 10.0 0.00 0.00 0.00 69 1021.0
20260502000039 54 305 4.0 5.0 0.00 0.00 0.00 69 1021.0
20260501233039 54 355 1.0 5.0 0.00 0.00 0.00 69 1021.0
20260501230039 54 350 5.0 10.0 0.00 0.00 0.00 69 1021.1
20260501223038 53 320 10.0 10.0 0.00 0.00 0.00 70 1021.1
20260501220038 53 302 4.0 9.0 0.00 0.00 0.00 70 1020.8
20260501213037 53 10 3.0 11.0 0.00 0.00 0.00 68 1020.5
20260501210036 53 346 11.0 11.0 0.00 0.00 0.00 68 1020.2
20260501203036 53 5 9.0 9.0 0.00 0.00 0.00 68 1020.0
20260501193035 54 329 3.0 5.0 0.00 0.00 0.00 71 1019.8
20260501190034 55 321 2.0 9.0 0.00 0.00 0.00 69 1019.5
20260501183033 56 355 8.0 10.0 0.00 0.00 0.00 68 1019.1
20260501180033 57 342 9.0 10.0 0.00 0.00 0.00 67 1018.7
20260501173032 58 255 5.0 16.0 0.00 0.00 0.00 64 1018.2